Time,TemperatureF,DewpointF,PressureIn,WindDirection,WindDirectionDegrees,WindSpeedMPH,WindSpeedGustMPH,Humidity,HourlyPrecipIn,Conditions,Clouds,dailyrainin,SoftwareType,DateUTC
2013-01-18 00:22:00,49.0,26.0,30.18,North,0,0.0,4.0,41,0.00,,,-99.99,,2013-01-18 08:22:00,
2013-01-18 00:32:00,49.0,26.0,30.18,North,0,0.0,4.0,41,0.00,,,-99.99,,2013-01-18 08:32:00,
2013-01-18 00:42:00,49.0,26.0,30.18,North,0,0.0,4.0,41,0.00,,,-99.99,,2013-01-18 08:42:00,
2013-01-18 01:22:00,48.0,27.0,30.19,North,0,0.0,1.0,44,0.00,,,-99.99,,2013-01-18 09:22:00,
2013-01-18 01:32:00,48.0,27.0,30.19,North,0,0.0,1.0,44,0.00,,,-99.99,,2013-01-18 09:32:00,
2013-01-18 01:42:00,48.0,27.0,30.19,North,0,0.0,1.0,44,0.00,,,-99.99,,2013-01-18 09:42:00,
2013-01-18 02:22:00,45.0,27.0,30.19,North,0,0.0,2.0,49,0.00,,,-99.99,,2013-01-18 10:22:00,
2013-01-18 02:32:00,45.0,27.0,30.19,North,0,0.0,2.0,49,0.00,,,-99.99,,2013-01-18 10:32:00,
2013-01-18 02:42:00,45.0,27.0,30.19,North,0,0.0,2.0,49,0.00,,,-99.99,,2013-01-18 10:42:00,
2013-01-18 04:22:00,42.0,27.0,30.17,North,0,0.0,3.0,54,0.00,,,-99.99,,2013-01-18 12:22:00,
2013-01-18 04:32:00,42.0,27.0,30.17,North,0,0.0,3.0,54,0.00,,,-99.99,,2013-01-18 12:32:00,
2013-01-18 05:22:00,42.0,26.0,30.16,North,0,0.0,5.0,53,0.00,,,-99.99,,2013-01-18 13:22:00,
2013-01-18 05:33:00,42.0,26.0,30.16,North,0,0.0,5.0,53,0.00,,,-99.99,,2013-01-18 13:33:00,
2013-01-18 06:22:00,44.0,26.0,30.16,ESE,120,1.0,6.0,49,0.00,,,-99.99,,2013-01-18 14:22:00,
2013-01-18 06:33:00,44.0,26.0,30.16,ESE,120,1.0,6.0,49,0.00,,,-99.99,,2013-01-18 14:33:00,
2013-01-18 06:42:00,44.0,26.0,30.16,ESE,120,1.0,6.0,49,0.00,,,-99.99,,2013-01-18 14:42:00,
2013-01-18 07:23:00,43.0,25.0,30.18,North,0,0.0,4.0,49,0.00,,,-99.99,,2013-01-18 15:23:00,
2013-01-18 07:33:00,43.0,25.0,30.18,North,0,0.0,4.0,49,0.00,,,-99.99,,2013-01-18 15:33:00,
2013-01-18 08:23:00,45.0,26.0,30.19,North,0,0.0,2.0,47,0.00,,,-99.99,,2013-01-18 16:23:00,
2013-01-18 08:33:00,45.0,26.0,30.19,North,0,0.0,2.0,47,0.00,,,-99.99,,2013-01-18 16:33:00,
2013-01-18 09:23:00,52.0,28.0,30.20,North,0,0.0,5.0,39,0.00,,,-99.99,,2013-01-18 17:23:00,
2013-01-18 09:33:00,52.0,28.0,30.20,North,0,0.0,5.0,39,0.00,,,-99.99,,2013-01-18 17:33:00,
2013-01-18 10:23:00,59.0,30.0,30.19,North,0,0.0,3.0,33,0.00,,,-99.99,,2013-01-18 18:23:00,
2013-01-18 10:33:00,59.0,30.0,30.19,North,0,0.0,3.0,33,0.00,,,-99.99,,2013-01-18 18:33:00,
2013-01-18 11:22:00,66.0,24.0,30.17,North,0,0.0,5.0,20,0.00,,,-99.99,,2013-01-18 19:22:00,
2013-01-18 11:33:00,66.0,24.0,30.17,North,0,0.0,5.0,20,0.00,,,-99.99,,2013-01-18 19:33:00,
2013-01-18 11:42:00,66.0,24.0,30.17,North,0,0.0,5.0,20,0.00,,,-99.99,,2013-01-18 19:42:00,
2013-01-18 12:23:00,71.0,21.0,30.12,SSE,150,3.0,4.0,15,0.00,,,-99.99,,2013-01-18 20:23:00,
2013-01-18 12:33:00,71.0,21.0,30.12,SSE,150,3.0,4.0,15,0.00,,,-99.99,,2013-01-18 20:33:00,
2013-01-18 12:42:00,71.0,21.0,30.12,SSE,150,3.0,4.0,15,0.00,,,-99.99,,2013-01-18 20:42:00,
2013-01-18 13:22:00,74.0,18.0,30.09,East,90,3.0,9.0,12,0.00,,,-99.99,,2013-01-18 21:22:00,
2013-01-18 13:33:00,74.0,18.0,30.09,East,90,3.0,9.0,12,0.00,,,-99.99,,2013-01-18 21:33:00,
2013-01-18 13:42:00,74.0,18.0,30.09,East,90,3.0,9.0,12,0.00,,,-99.99,,2013-01-18 21:42:00,
2013-01-18 14:22:00,74.0,16.0,30.09,SW,220,5.0,11.0,11,0.00,,,-99.99,,2013-01-18 22:22:00,
2013-01-18 14:32:00,74.0,16.0,30.09,SW,220,5.0,11.0,11,0.00,,,-99.99,,2013-01-18 22:32:00,
2013-01-18 14:42:00,74.0,16.0,30.09,SW,220,5.0,11.0,11,0.00,,,-99.99,,2013-01-18 22:42:00,
2013-01-18 15:22:00,73.0,17.0,30.09,West,260,2.0,16.0,12,0.00,,,-99.99,,2013-01-18 23:22:00,
2013-01-18 15:32:00,73.0,17.0,30.09,West,260,2.0,16.0,12,0.00,,,-99.99,,2013-01-18 23:32:00,
2013-01-18 15:42:00,73.0,17.0,30.09,West,260,2.0,16.0,12,0.00,,,-99.99,,2013-01-18 23:42:00,
2013-01-18 16:22:00,72.0,17.0,30.08,WNW,300,8.0,14.0,12,0.00,,,-99.99,,2013-01-19 00:22:00,
2013-01-18 16:32:00,72.0,17.0,30.08,WNW,300,8.0,14.0,12,0.00,,,-99.99,,2013-01-19 00:32:00,
2013-01-18 16:42:00,72.0,17.0,30.08,WNW,300,8.0,14.0,12,0.00,,,-99.99,,2013-01-19 00:42:00,
2013-01-18 18:22:00,66.0,17.0,30.10,North,0,0.0,7.0,15,0.00,,,-99.99,,2013-01-19 02:22:00,
2013-01-18 18:32:00,66.0,17.0,30.10,North,0,0.0,7.0,15,0.00,,,-99.99,,2013-01-19 02:32:00,
2013-01-18 18:42:00,66.0,17.0,30.10,North,0,0.0,7.0,15,0.00,,,-99.99,,2013-01-19 02:42:00,
2013-01-18 19:22:00,65.0,16.0,30.12,South,180,1.0,7.0,15,0.00,,,-99.99,,2013-01-19 03:22:00,
2013-01-18 19:32:00,65.0,16.0,30.12,South,180,1.0,7.0,15,0.00,,,-99.99,,2013-01-19 03:32:00,
2013-01-18 19:43:00,65.0,16.0,30.12,South,180,1.0,7.0,15,0.00,,,-99.99,,2013-01-19 03:43:00,
2013-01-18 20:22:00,60.0,24.0,30.14,ESE,110,2.0,3.0,25,0.00,,,-99.99,,2013-01-19 04:22:00,
2013-01-18 20:32:00,60.0,24.0,30.14,ESE,110,2.0,3.0,25,0.00,,,-99.99,,2013-01-19 04:32:00,
2013-01-18 20:42:00,60.0,24.0,30.14,ESE,110,2.0,3.0,25,0.00,,,-99.99,,2013-01-19 04:42:00,
2013-01-18 21:22:00,54.0,28.0,30.15,SSE,150,1.0,4.0,37,0.00,,,-99.99,,2013-01-19 05:22:00,
2013-01-18 21:32:00,54.0,28.0,30.15,SSE,150,1.0,4.0,37,0.00,,,-99.99,,2013-01-19 05:32:00,
2013-01-18 22:22:00,54.0,28.0,30.16,North,0,0.0,5.0,37,0.00,,,-99.99,,2013-01-19 06:22:00,
2013-01-18 22:32:00,54.0,28.0,30.16,North,0,0.0,5.0,37,0.00,,,-99.99,,2013-01-19 06:32:00,
2013-01-18 23:22:00,52.0,28.0,30.16,North,0,0.0,2.0,40,0.00,,,-99.99,,2013-01-19 07:22:00,
2013-01-18 23:32:00,52.0,28.0,30.16,North,0,0.0,2.0,40,0.00,,,-99.99,,2013-01-19 07:32:00,
2013-01-18 23:42:00,52.0,28.0,30.16,North,0,0.0,2.0,40,0.00,,,-99.99,,2013-01-19 07:42:00,